This demonstration page uses our WeatherBlox Daily Observations layout. Learn more.

38.89511, -77.03637

Hourly Observations for December 7, 2016

Temp ( °F °C ) Dew Point ( °F °C ) Humidity (%) Winds ( mph kmh ) Pressure ( in mb ) Visibility ( mi km ) Precip ( " mm )
12:52 am 00:52 Cloudy 45 7.2 43 6.1 93 93 N 10 17 29.83 1010 10 16.0934 0 0
1:52 am 01:52 Cloudy 43 6.1 42 5.6 97 97 NW 10 17 29.89 1012 9 14.48406 0 0
2:06 am 02:06 Cloudy 43 6 41 5 93 93 NNW 12 19 29.88 1012 10 16.0934 0 0
2:33 am 02:33 Cloudy 43 6.1 41 5 93 93 NNW 12 19 29.91 1013 10 16.0934 0 0
2:52 am 02:52 Cloudy 43 6.1 41 5 93 93 NNW 12 19 29.89 1012 10 16.0934 0 0
3:44 am 03:44 Cloudy 43 6 41 5 93 93 NNW 12 19 29.91 1013 10 16.0934 0 0
3:52 am 03:52 Cloudy 43 6.1 41 5 93 93 NNW 12 19 29.92 1013 10 16.0934 0 0
4:52 am 04:52 Mostly Cloudy 43 6.1 41 5 93 93 N 6 9 29.94 1014 10 16.0934 0 0
5:52 am 05:52 Cloudy 44 6.7 41 5 89 89 N 5 7 29.96 1015 10 16.0934 0 0
6:52 am 06:52 Mostly Cloudy 45 7.2 40 4.4 83 83 NW 9 15 30 1016 10 16.0934 0 0
7:52 am 07:52 Mostly Cloudy 44 6.7 40 4.4 85 85 NW 7 11 30.01 1016 10 16.0934 0 0
8:52 am 08:52 Mostly Cloudy 45 7.2 40 4.4 83 83 NNW 7 11 30.03 1017 10 16.0934 0 0
9:52 am 09:52 Mostly Cloudy 47 8.3 39 3.9 74 74 NNW 12 19 30.07 1018 10 16.0934 0 0
10:52 am 10:52 Mostly Cloudy 49 9.4 37 2.8 64 64 NNW 14 22 30.06 1018 10 16.0934 0 0
11:52 am 11:52 Mostly Cloudy 50 10 35 1.7 57 57 NNW 13 20 30.05 1018 10 16.0934 0 0
12:52 pm 12:52 Mostly Cloudy 51 10.6 33 0.6 50 50 NNW 10 17 30.04 1017 10 16.0934 0 0
1:52 pm 13:52 Mostly Cloudy 51 10.6 30 -1.1 44 44 NW 15 24 30.04 1017 10 16.0934 0 0
2:52 pm 14:52 Partly Cloudy 51 10.6 30 -1.1 44 44 NW 7 11 30.06 1018 10 16.0934 0 0
3:52 pm 15:52 Partly Cloudy 50 10 32 0 50 50 N 8 13 30.06 1018 10 16.0934 0 0
4:52 pm 16:52 Mostly Cloudy 48 8.9 30 -1.1 50 50 NNW 5 7 30.07 1018 10 16.0934 0 0
5:52 pm 17:52 Clear 48 8.9 30 -1.1 50 50 Calm 30.08 1019 10 16.0934 0 0
6:52 pm 18:52 Mostly Cloudy 46 7.8 36 2.2 68 68 S 3 6 30.09 1019 10 16.0934 0 0
7:52 pm 19:52 Partly Cloudy 43 6.1 37 2.8 80 80 S 5 7 30.08 1019 10 16.0934 0 0
8:52 pm 20:52 Clear 43 6.1 36 2.2 76 76 S 3 6 30.08 1019 10 16.0934 0 0
9:52 pm 21:52 Mostly Clear 41 5 35 1.7 79 79 Calm 30.09 1019 10 16.0934 0 0
10:52 pm 22:52 Partly Cloudy 41 5 36 2.2 82 82 Calm 30.08 1019 10 16.0934 0 0
11:52 pm 23:52 Partly Cloudy 40 4.4 35 1.7 83 83 SSW 3 6 30.08 1019 10 16.0934 0 0

Powered by AerisWeather